Location: Bastelaar
(51.0950°N, 3.8602°E)
Time: 17:49:06
(UTC+00:00)

UNK - Pass Details

Date: 18 November 2025
Orbit: 655 x 672 km, 98.4° (Epoch: 10 December)

Event Time Altitude Azimuth Distance (km) Brightness Sun altitude
Rises 16:58:32 0° 16° (NNE) 3,036 6.8 -10.2°
Reaches altitude 10° 17:00:47 10° 18° (NNE) 2,117 6.0 -10.6°
Maximum altitude 17:05:25 74° 104° (ESE) 704 3.7 -11.3°
Drops below altitude 10° 17:10:00 10° 190° (S) 2,098 6.6 -12.0°
Sets 17:12:13 0° 192° (SSW) 3,006 7.5 -12.3°
